Regional Weather Roundup
Issued by NWS Upton, NY

Current Version | Previous Version | Text Only | Print | Product List | Glossary On
Versions: 1 2 3 4 5 6 7 8 9 10 11 12 13 14 15 16 17 18 19 20 21 22 23 24 25 26 27 28 29 30 31 32 33 34 35 36 37 38 39 40 41 42 43 44 45 46 47 48 49 50
478
ASUS41 KOKX 050808
RWROKX

REGIONAL WEATHER ROUNDUP
NATIONAL WEATHER SERVICE NEW YORK NY
300 AM EST MON DEC 05 2016

NOTE: "FAIR" INDICATES FEW OR NO CLOUDS BELOW 12,000 FEET WITH NO
SIGNIFICANT WEATHER AND/OR OBSTRUCTIONS TO VISIBILITY.

NYZ071-072-176-178-NJZ106-104-050900-
NEW YORK CITY METRO AREA

CITY           SKY/WX    TMP DP  RH WIND       PRES   REMARKS
Central Park   LGT RAIN  41  29  62 NE5       30.11R
Wall St Helipt CLOUDY    45  34  65 SW6       30.09R
Bronx Bot Gard NOT AVBL
LaGuardia APRT LGT RAIN  43  29  57 E5        30.09R
Kennedy INTL   CLOUDY    46  31  55 S10       30.09R
Breezy Point     N/A     45 N/A N/A S12G18      N/A
Newark/Liberty LGT RAIN  44  32  62 S6        30.08R
Teterboro      LGT RAIN  42  26  53 CALM      30.08R
$$

NYZ177-179-078>081-050900-
LONG ISLAND NEW YORK

CITY           SKY/WX    TMP DP  RH WIND       PRES   REMARKS
Jones Beach      N/A     45 N/A N/A S10G16      N/A
Matinecock PT    N/A     41 N/A N/A E5          N/A
Farmingdale    CLOUDY    39  28  64 CALM      30.09S
MacArthur/ISP  CLOUDY    38  27  64 CALM      30.09F
Shirley        CLOUDY    36  27  69 CALM      30.09F
Westhampton    CLOUDY    36  30  79 CALM      30.09F
Southampton    NOT AVBL
Bridgehampton  NOT AVBL
East Hampton   CLOUDY    33  28  81 CALM      30.08F
Montauk          N/A     43  31  62 VRB5      30.10F
$$

NYZ052-065-067-050900-
HUDSON VALLEY

CITY           SKY/WX    TMP DP  RH WIND       PRES   REMARKS
White Plains   CLOUDY    36  24  62 CALM      30.09R
Newburgh       NOT AVBL
Montgomery     FLURRIES  32  24  72 NE3       30.06F
Poughkeepsie   CLOUDY    31  23  72 CALM      30.09R
Albany         CLOUDY    28  23  81 CALM      30.09R
$$

NJZ001-105-106-008-010-013-015-019>022-104-050900-
NEW JERSEY

CITY           SKY/WX    TMP DP  RH WIND       PRES   REMARKS
Newark/Liberty LGT RAIN  44  32  62 S6        30.08R
Teterboro      LGT RAIN  42  26  53 CALM      30.08R
Caldwell       LGT SNOW  38  26  62 NE3       30.07S
Somerville     LGT RAIN  37  32  82 S5        30.06R WCI  33
Linden         DRIZZLE   43  32  65 SW7       30.08S
Sussex         LGT SNOW  30  26  85 E5        30.06F FOG     WCI  25
Andover          N/A     33  28  81 SW3       30.05F
Trenton        LGT RAIN  38  34  85 S8        30.05F FOG     WCI  32
Millville      LGT RAIN  40  39  97 VRB3      30.05F
Atlantic City  LGT RAIN  41  37  86 S5        30.06F
Wrightstown    LGT RAIN  37  36  93 S3        30.04F
Toms River     LGT RAIN  39  37  92 SW3       30.08S
Belmar         LGT RAIN N/A N/A N/A SW8       30.08R
$$

PAZ047>061-062-071-050900-
EASTERN PENNSYLVANIA

CITY           SKY/WX    TMP DP  RH WIND       PRES   REMARKS
Philadelphia   LGT RAIN  41  36  82 S7        30.06F
Allentown      LGT RAIN  37  33  85 SE3       30.03F FOG
Scranton       LGT SNOW  33  32  96 N3        29.98S VSB 1
$$

CTZ002-004>006-009-010-012-RIZ004-006-007-MAZ004-011-015-050900-
SOUTHERN NEW ENGLAND
 IN CT

CITY           SKY/WX    TMP DP  RH WIND       PRES   REMARKS
Bradley INTL   CLOUDY    30  21  69 NW6       30.13R WCI  24
Hartford       CLOUDY    32  22  66 NW5       30.13R WCI  27
Danbury        CLOUDY    32  22  66 N3        30.11R
Wtrbury/Oxford CLOUDY    32  19  59 E5        30.09R WCI  27
Bridgeport     CLOUDY    39  26  59 N8        30.10S WCI  33
Meriden        CLOUDY    34  22  61 NW3       30.13R
New Haven      CLOUDY    35  23  61 N6        30.10F WCI  30
Chester          N/A     34  21  60 CALM      30.10R
Groton         CLOUDY    37  24  59 NE5       30.10F WCI  33
Wilimantic     CLOUDY    30  25  81 CALM      30.11F

 IN RI

CITY           SKY/WX    TMP DP  RH WIND       PRES   REMARKS
Providence     CLOUDY    31  23  72 CALM      30.13F
Block Island   CLOUDY    40  29  64 SE8       30.08F WCI  34
Westerly       CLOUDY    33  22  63 N5        30.10F WCI  29
 IN MA

CITY           SKY/WX    TMP DP  RH WIND       PRES   REMARKS
Boston         CLOUDY    32  22  66 NW5       30.13F WCI  27
Worcester      CLOUDY    27  19  72 CALM      30.07F
Westfield      CLOUDY    29  24  82 N5        30.12R WCI  24
Provincetown   CLOUDY    33  28  81 W3        30.12F
Nantucket      MOCLDY    32  26  78 W3        30.13S
$$

ANZ330-335-338-340-345-350-353-355-050900-
COASTAL MARINE OBSERVATIONS


STATION/POSITION TIME  SKY/WX   TEMP    WIND        PRES    VSBY  WAVE
                                AIR SEA DIR/SP/G                  HT/PER
                 (UTC)          (F)     (DEG/KT/KT) (MB)    (MI)  (FT/S)
NY HARB ENTRANCE 0750            47 53  190/ 14/ 19 1018.1          2/ 3
20 S FIRE ISLAND 0750            46 54  190/ 14/ 16 1018.3          2/ 9
GREAT SOUTH BAY  0715            44 43                N/A
23 SSW MONTAUK P 0750            45 55  180/ 12/ 16 1019.4          1/10
15 E BARNEGAT LI 0730               55                N/A           2/ 3
HUDSON CANYON    0650            46 58              1019.5          2/ 8
KINGS POINT      0724            40 48              1018.1
EXECUTION ROCKS  0745            41     100/  8/ 10   N/A
CENTRAL LI SOUND 0730            42 51  110/  8/ 10   N/A           0
EASTERN LI SOUND NOT AVBL
ROBBINS REEF     0724            45     190/ 10/ 12 1018.4
$$


>>>>>>>>>>>>>>>>>>>>>>>>>>>> KEY <<<<<<<<<<<<<<<<<<<<<<<<<<<
>                                                          <
>     SKY/WX - Sky Condition/Present Weather               <
>     TMP    - Temperature in Fahrenheit                   <
>     DP     - Dew Point in Fahrenheit                     <
>     RH     - Relative Humidity in Percent                <
>     WIND   - Direction (from) and Speed in MPH           <
>     PRES   - Mean Sea Level Pressure (inches of Hg)      <
>     WCI    - Wind Chill Index                            <
>     VSB    - VISIBILITY IN MILES                         <
>     HX     - HEAT INDEX                                  <
>     TC     - TEMPERATURE IN CELSIUS                      <
>     VRB    - VARIABLE WIND DIRECTION                     <
>                                                          <
>>>>>>>>>>>>>>>>>>>>>>>>>>>> KEY <<<<<<<<<<<<<<<<<<<<<<<<<<<




USA.gov is the U.S. government's official web portal to all federal, state and local government web resources and services.